Weather observations for the past three days for
Los Angeles, Los Angeles International Airport
Imperial (Metric)
Date Time (pdt) Wind (mph) Vis. (mi.) Weather Sky Cond. Temperature (ºF) Relative Humidity Wind Chill (°F) Heat Index (°F) Pressure Precipitation (in)
Air Dwpt 6 hour altimeter (in) sea level (mb) 1 hr 3 hr 6 hr
Max. Min.
10 06:53 Calm 5.00 Overcast with Haze OVC011 61 55.9 84% 29.91 1012.8
10 05:53 E 3 6.00 Fog/Mist OVC010 61 57 87% 29.91 1012.5
10 04:53 E 6 6.00 Fog/Mist OVC010 61 57 62.1 57.9 87% 29.91 1012.6
10 03:53 E 3 5.00 Fog/Mist OVC009 61 57 87% 29.9 1012.4
10 02:53 Calm 5.00 Fog/Mist OVC007 60.1 57 90% 29.91 1012.6
10 01:53 SE 6 5.00 Fog/Mist OVC006 60.1 57 90% 29.91 1012.7
10 00:53 Calm 4.00 Fog/Mist OVC005 59 57 93% 29.92 1013.0
09 23:53 Vrbl 3 6.00 Fog/Mist OVC005 59 57 93% 29.92 1013.1
09 22:53 SW 5 4.00 Fog/Mist OVC004 57.9 55.9 64.9 57 93% 29.93 1013.2
09 21:53 W 7 1.00 Fog/Mist OVC002 57.9 55.9 93% 29.93 1013.3
09 20:53 W 9 2.00 Fog/Mist OVC004 59 57 93% 29.92 1012.9
09 19:53 W 9 7.00 Overcast OVC005 59 57 93% 29.9 1012.2
09 18:53 W 10 7.00 Overcast OVC007 61 57 87% 29.88 1011.7
09 17:53 W 13 8.00 Overcast SCT008 OVC010 63 57.9 84% 29.88 1011.7
09 16:53 W 13 8.00 Mostly Cloudy BKN010 64.9 57.9 69.1 64.9 78% 29.88 1011.8
09 15:53 SW 13 10.00 Partly Cloudy FEW009 SCT012 68 57.9 70% 29.88 1011.7
09 14:53 W 14 G 21 7.00 Partly Cloudy FEW008 SCT012 68 57 68% 29.91 1012.5
09 13:53 W 13 9.00 Partly Cloudy FEW008 SCT011 69.1 57 66% 29.92 1013.0
09 12:53 W 12 9.00 A Few Clouds FEW010 69.1 57.9 68% 29.93 1013.2
09 11:53 W 10 9.00 Partly Cloudy FEW010 SCT018 66.9 57.9 73% 29.94 1013.9
09 10:53 W 8 7.00 Mostly Cloudy FEW010 BKN016 66 57.9 66 61 75% 29.95 1014.1
09 09:53 Calm 6.00 Overcast with Haze OVC014 64 57 78% 29.94 1013.7
09 08:53 Vrbl 3 5.00 Overcast with Haze OVC012 63 57 81% 29.94 1013.8
09 07:53 SE 5 5.00 Overcast with Haze OVC011 62.1 57 84% 29.94 1013.8
09 06:53 SE 5 5.00 Fog/Mist OVC009 61 57 87% 29.94 1013.5
09 05:53 SE 5 5.00 Fog/Mist OVC009 61 57 87% 29.92 1013.1
09 04:53 Calm 6.00 Fog/Mist OVC010 61 57 62.1 59 87% 29.92 1013.1
09 03:53 Calm 6.00 Fog/Mist OVC011 62.1 57 84% 29.92 1013.0
09 02:53 N 3 6.00 Fog/Mist OVC010 61 55.9 84% 29.93 1013.3
09 01:53 Calm 6.00 Fog/Mist OVC010 61 57 87% 29.94 1013.7
09 00:53 E 6 6.00 Fog/Mist OVC009 60.1 57 90% 29.95 1014.2
08 23:53 Calm 9.00 Overcast OVC009 60.1 55.9 86% 29.96 1014.4
08 22:53 SW 5 9.00 Overcast OVC009 60.1 55.9 64.9 59 86% 29.97 1014.6
08 21:53 W 3 10.00 Overcast OVC007 59 55.9 90% 29.96 1014.5
08 20:53 W 8 9.00 Overcast OVC007 59 55.9 90% 29.96 1014.2
08 19:53 W 9 10.00 Overcast SCT008 OVC010 60.1 55.9 86% 29.94 1013.7
08 18:53 W 13 10.00 Overcast OVC010 62.1 57 84% 29.93 1013.4
08 17:53 W 9 10.00 Overcast OVC010 63 57 81% 29.93 1013.3
08 16:53 W 12 10.00 Mostly Cloudy BKN012 64 57 69.1 64 78% 29.93 1013.4
08 15:53 W 14 10.00 Partly Cloudy SCT013 66.9 57 71% 29.94 1013.8
08 14:53 W 12 G 21 9.00 A Few Clouds FEW011 FEW023 69.1 57 66% 29.96 1014.5
08 13:53 W 12 10.00 A Few Clouds FEW010 FEW022 68 57 68% 29.98 1015.2
08 12:53 W 9 10.00 Partly Cloudy SCT020 68 57 68% 30 1015.7
08 11:53 W 9 9.00 Overcast OVC018 64.9 57 76% 30.01 1016.2
08 10:53 W 8 9.00 Overcast OVC017 64.9 57.9 64.9 61 78% 30.02 1016.4
08 09:53 E 3 9.00 Overcast OVC014 64 57 78% 30.02 1016.4
08 08:53 Calm 9.00 Overcast OVC013 63 57 81% 30.02 1016.3
08 07:53 Vrbl 3 7.00 Overcast OVC012 62.1 57 84% 30.02 1016.3
08 06:53 E 5 8.00 Overcast OVC011 62.1 57 84% 30.01 1016.1
08 05:53 E 7 8.00 Overcast FEW008 OVC012 61 55.9 84% 30 1015.8
08 04:53 SE 3 9.00 Overcast FEW008 OVC011 61 55.9 62.1 60.1 84% 29.99 1015.4
08 03:53 SE 9 9.00 Overcast FEW008 OVC012 62.1 55.9 80% 29.99 1015.2
08 02:53 Calm 10.00 Mostly Cloudy FEW008 BKN011 62.1 57 84% 29.99 1015.2
08 01:53 SW 5 10.00 Mostly Cloudy FEW008 BKN010 61 57 87% 30 1015.7
08 00:53 SW 6 10.00 Partly Cloudy FEW007 SCT010 60.1 57 90% 30.01 1016.1
07 23:53 S 3 10.00 Partly Cloudy FEW007 SCT010 60.1 57 90% 30.01 1016.0
07 22:53 S 5 10.00 Partly Cloudy FEW006 SCT010 61 57 66 60.1 87% 30 1015.9
07 21:53 S 6 10.00 Mostly Cloudy FEW005 BKN009 62.1 57.9 86% 30 1015.7
07 20:53 W 5 10.00 Partly Cloudy FEW005 SCT008 60.1 57 90% 29.98 1015.1
07 19:53 W 10 10.00 Partly Cloudy SCT009 61 55.9 84% 29.96 1014.4
07 18:53 SW 10 10.00 Partly Cloudy SCT009 63 55.9 78% 29.95 1013.9
07 17:53 SW 13 10.00 A Few Clouds FEW008 FEW110 64.9 55.9 73% 29.95 1013.9
07 16:53 SW 12 10.00 Partly Cloudy FEW009 SCT110 66 57 68 64.9 73% 29.95 1014.0
07 15:53 W 15 10.00 Partly Cloudy SCT009 SCT110 66.9 57.9 73% 29.95 1014.3
07 14:53 W 15 10.00 A Few Clouds FEW010 FEW110 68 55.9 65% 29.97 1014.8
07 13:53 W 14 10.00 A Few Clouds FEW010 66.9 55.9 68% 29.99 1015.3
07 12:53 W 13 10.00 A Few Clouds FEW010 68 55.9 65% 30 1015.8
07 11:53 W 12 10.00 A Few Clouds FEW010 68 57 68% 30.01 1016.2
07 10:53 W 9 10.00 A Few Clouds FEW010 66 55.9 66 57.9 70% 30.02 1016.4
07 09:53 W 9 10.00 A Few Clouds FEW010 66 55.9 70% 30.02 1016.5
07 08:53 SW 3 10.00 Partly Cloudy SCT012 63 55.9 78% 30.03 1016.6
07 07:53 W 6 10.00 Partly Cloudy SCT010 62.1 55.9 80% 30.03 1016.6
Date Time (pdt) Wind (mph) Vis. (mi.) Weather Sky Cond. Air Dwpt Max. Min. Relative Humidity Wind Chill (°F) Heat Index (°F) altimeter (in) sea level (mb) 1 hr 3 hr 6 hr
6 hour
Temperature (ºF) Pressure Precipitation (in)